Погода в Мишкине

Россия / Курганская область     55°20′26″N   63°54′28″E
темп.,
°C
ветер,
м/с
пор.,
м/с
влажн.,
%
обл.,
%
осадки,
мм/ч
давл.,
гПа
погр.,
м
7 мая, пт
пт723:00+7зсз49510 0.0 1017180
02:00+6з34580 0.0 101855
05:00+5зсз35680 0.0 102065
08:00+10з34505 0.0 1021329
11:00+15з34353 0.0 10211198
14:00+19з44313 0.0 10201682
17:00+19з33294 0.0 10201738
20:00+16юз11405 0.0 101911
8 мая, сб
сб823:00+12ю23432 0.0 102015
02:00+11ююз2345100 0.0 102017
05:00+10ююз224585 0.0 102010
08:00+15ююв233781 0.0 1020212
11:00+19ююв3325100 0.0 10191925
14:00+20юв332291 0.0 10172266
17:00+21вюв222297 0.0 10172436
20:00+17в223284 0.0 101617
9 мая, вс
вс923:00+15всв2232100 0.0 101614
02:00+14всв2235100 0.0 101620
05:00+13св2238100 0.0 101615
08:00+15с454087 0.0 1016221
11:00+21ссв572764 0.0 10151681
14:00+23всв6823100 0.0 10143079
17:00+23всв6923100 0.0 10133124
20:00+19св5836100 0.0 1014224
10 мая, пн
пн1023:00+17св61443100 0.0 1015423
02:00+13св4859100 0.0 1016148
05:00+12св4964100 0.0 1018172
08:00+16всв584996 0.0 1019479
11:00+21всв573237 0.0 10202136
14:00+22ссв5627100 0.0 10192738
17:00+22с572720 0.0 10192791
20:00+17св47342 0.0 1020115
11 мая, вт
вт1123:00+13всв23420 0.0 102119
02:00+11ю33572 0.0 102128
05:00+11зюз225879 0.0 102110
08:00+17з2241100 0.0 1021197
11:00+22юз112698 0.0 10211147
14:00+23зсз4429100 0.0 10202578
17:00+22сз5437100 0.0 10201605
20:00+15сз5874100 0.2 1022437